Zurück zum Katalog

SL-8 DEB

AktivLEO
NORAD 22132·DEBRIS·🇷🇺 Russia

Gestartet Feb 12, 1991 von Plesetsk Cosmodrome

Loading…

Nächste Überflüge (nächste 24 Stunden)

TLE

AktuellSource: Space-Track

Epoche: Sep 14, 2026, 06:04 UTC

1 22132U 91009CR  26257.25303370  .00000023  00000-0  37204-3 0  9998
2 22132  74.0582 194.2850 0142475 256.4133 257.1552 12.16952832577975

Verfolge SL-8 DEB in Echtzeit mit AllMySat

Download on the App Store